"read_dt","SO2 (ppb)","flags","PMT voltage (V)","lamp voltage (V)","lamp intensity (Hz)","internal temp (C)","react chamber temp (C)","sample flow (l/min)","pres (mmHg)","SO2 bkg (ppb)","SO2 coefficient"
2015-10-24 00:00:00,1665E-3,5C000400,-0724,0829,12181,028.5,045.4,0.255,758.6,01.16,0.508
2015-10-24 00:01:00,1761E-3,5C000400,-0724,0829,12220,028.5,045.4,0.256,758.6,01.16,0.508
2015-10-24 00:02:00,1780E-3,5C000400,-0724,0828,12190,028.6,045.4,0.255,758.6,01.16,0.508
2015-10-24 00:03:00,1895E-3,5C000400,-0724,0828,12354,028.5,045.4,0.255,758.6,01.16,0.508
2015-10-24 00:04:00,1739E-3,5C000400,-0724,0829,12223,028.5,045.4,0.255,758.6,01.16,0.508
2015-10-24 00:05:00,1714E-3,5C000400,-0724,0829,12247,028.5,045.4,0.255,758.7,01.16,0.508
2015-10-24 00:06:00,1715E-3,5C000400,-0724,0828,12250,028.5,045.4,0.255,758.6,01.16,0.508
2015-10-24 00:07:00,1755E-3,5C000400,-0724,0829,11987,028.5,045.5,0.256,758.6,01.16,0.508
2015-10-24 00:08:00,1689E-3,5C000400,-0724,0829,12267,028.5,045.5,0.255,758.6,01.16,0.508
2015-10-24 00:09:00,1745E-3,5C000400,-0724,0829,12262,028.5,045.5,0.255,758.6,01.16,0.508
2015-10-24 00:10:00,1731E-3,5C000400,-0724,0828,12254,028.5,045.4,0.255,758.5,01.16,0.508
2015-10-24 00:11:00,1815E-3,5C000400,-0724,0829,12338,028.5,045.4,0.255,758.5,01.16,0.508
2015-10-24 00:12:00,1740E-3,5C000400,-0724,0828,12275,028.5,045.4,0.255,758.5,01.16,0.508
2015-10-24 00:13:00,1804E-3,5C000400,-0724,0829,12230,028.5,045.4,0.255,758.5,01.16,0.508
2015-10-24 00:14:00,1678E-3,5C000400,-0724,0828,12239,028.5,045.4,0.255,758.5,01.16,0.508
2015-10-24 00:15:00,1765E-3,5C000400,-0724,0828,12148,028.5,045.4,0.255,758.5,01.16,0.508
2015-10-24 00:16:00,1655E-3,5C000400,-0724,0829,12278,028.6,045.4,0.255,758.5,01.16,0.508
2015-10-24 00:17:00,1650E-3,5C000400,-0724,0828,12351,028.5,045.4,0.255,758.5,01.16,0.508
2015-10-24 00:18:00,1633E-3,5C000400,-0724,0828,12234,028.5,045.5,0.255,758.5,01.16,0.508
2015-10-24 00:19:00,1811E-3,5C000400,-0724,0828,12135,028.5,045.4,0.255,758.5,01.16,0.508
2015-10-24 00:20:00,1672E-3,5C000400,-0724,0829,12204,028.6,045.4,0.256,758.5,01.16,0.508
2015-10-24 00:21:00,1654E-3,5C000400,-0724,0829,12318,028.5,045.4,0.255,758.5,01.16,0.508
2015-10-24 00:22:00,1737E-3,5C000400,-0724,0829,12172,028.5,045.4,0.255,758.5,01.16,0.508
2015-10-24 00:23:00,1826E-3,5C000400,-0724,0828,12319,028.5,045.5,0.255,758.5,01.16,0.508
2015-10-24 00:24:00,1832E-3,5C000400,-0724,0829,12190,028.6,045.4,0.255,758.5,01.16,0.508
2015-10-24 00:25:00,1741E-3,5C000400,-0724,0829,12250,028.5,045.5,0.255,758.6,01.16,0.508
2015-10-24 00:26:00,1722E-3,5C000400,-0724,0828,12213,028.5,045.5,0.256,758.5,01.16,0.508
2015-10-24 00:27:00,1725E-3,5C000400,-0724,0829,12142,028.6,045.5,0.255,758.6,01.16,0.508
2015-10-24 00:28:00,1733E-3,5C000400,-0724,0828,12164,028.6,045.5,0.255,758.5,01.16,0.508
2015-10-24 00:29:00,1814E-3,5C000400,-0724,0829,12268,028.6,045.5,0.255,758.6,01.16,0.508
2015-10-24 00:30:00,1686E-3,5C000400,-0724,0828,12298,028.6,045.4,0.255,758.6,01.16,0.508
2015-10-24 00:31:00,1692E-3,5C000400,-0724,0828,12232,028.6,045.4,0.255,758.6,01.16,0.508
2015-10-24 00:32:00,1788E-3,5C000400,-0724,0829,12277,028.6,045.4,0.256,758.5,01.16,0.508
2015-10-24 00:33:00,1669E-3,5C000400,-0724,0828,12246,028.6,045.4,0.255,758.5,01.16,0.508
2015-10-24 00:34:00,1781E-3,5C000400,-0724,0828,12231,028.6,045.4,0.255,758.5,01.16,0.508
2015-10-24 00:35:00,1697E-3,5C000400,-0724,0829,12340,028.6,045.4,0.255,758.5,01.16,0.508
2015-10-24 00:36:00,1691E-3,5C000400,-0724,0828,12304,028.6,045.4,0.255,758.5,01.16,0.508
2015-10-24 00:37:00,1707E-3,5C000400,-0724,0828,12187,028.6,045.4,0.255,758.5,01.16,0.508
2015-10-24 00:38:00,1709E-3,5C000400,-0724,0829,12225,028.6,045.4,0.255,758.5,01.16,0.508
2015-10-24 00:39:00,1773E-3,5C000400,-0724,0828,12180,028.6,045.5,0.255,758.5,01.16,0.508
2015-10-24 00:40:00,1756E-3,5C000400,-0724,0828,12264,028.6,045.4,0.255,758.5,01.16,0.508
2015-10-24 00:41:00,1767E-3,5C000400,-0724,0829,12270,028.6,045.4,0.255,758.5,01.16,0.508
2015-10-24 00:42:00,1704E-3,5C000400,-0724,0828,12241,028.6,045.4,0.255,758.5,01.16,0.508
2015-10-24 00:43:00,1722E-3,5C000400,-0724,0829,12354,028.6,045.4,0.255,758.5,01.16,0.508
2015-10-24 00:44:00,1821E-3,5C000400,-0724,0828,12292,028.6,045.4,0.255,758.5,01.16,0.508
2015-10-24 00:45:00,1787E-3,5C000400,-0724,0828,12308,028.6,045.4,0.255,758.5,01.16,0.508
2015-10-24 00:46:00,1741E-3,5C000400,-0724,0829,12080,028.6,045.4,0.255,758.5,01.16,0.508
2015-10-24 00:47:00,1730E-3,5C000400,-0724,0829,12252,028.6,045.4,0.255,758.6,01.16,0.508
2015-10-24 00:48:00,1768E-3,5C000400,-0724,0828,12172,028.6,045.4,0.255,758.6,01.16,0.508
2015-10-24 00:49:00,1749E-3,5C000400,-0724,0829,12245,028.6,045.5,0.255,758.6,01.16,0.508
2015-10-24 00:50:00,1808E-3,5C000400,-0724,0829,12268,028.6,045.4,0.255,758.6,01.16,0.508
2015-10-24 00:51:00,1717E-3,5C000400,-0724,0829,12033,028.6,045.4,0.255,758.6,01.16,0.508
2015-10-24 00:52:00,1777E-3,5C000400,-0724,0829,12107,028.6,045.4,0.255,758.6,01.16,0.508
2015-10-24 00:53:00,1647E-3,5C000400,-0724,0828,12255,028.6,045.5,0.255,758.5,01.16,0.508
2015-10-24 00:54:00,1720E-3,5C000400,-0724,0829,12142,028.6,045.4,0.255,758.6,01.16,0.508
2015-10-24 00:55:00,1661E-3,5C000400,-0724,0828,12133,028.6,045.4,0.255,758.6,01.16,0.508
2015-10-24 00:56:00,1706E-3,5C000400,-0724,0829,12142,028.6,045.5,0.255,758.5,01.16,0.508
2015-10-24 00:57:00,1781E-3,5C000400,-0724,0828,12165,028.6,045.5,0.256,758.5,01.16,0.508
2015-10-24 00:58:00,1873E-3,5C000400,-0724,0828,12299,028.6,045.5,0.256,758.5,01.16,0.508
2015-10-24 00:59:00,1717E-3,5C000400,-0724,0828,12245,028.7,045.4,0.256,758.5,01.16,0.508
2015-10-24 01:00:00,1789E-3,5C000400,-0724,0828,12175,028.7,045.4,0.255,758.5,01.16,0.508
2015-10-24 01:01:00,1655E-3,5C000400,-0724,0829,12241,028.7,045.4,0.255,758.5,01.16,0.508
2015-10-24 01:02:00,1652E-3,5C000400,-0724,0829,12128,028.7,045.4,0.255,758.4,01.16,0.508
2015-10-24 01:03:00,1782E-3,5C000400,-0724,0828,12139,028.7,045.4,0.255,758.4,01.16,0.508
2015-10-24 01:04:00,1703E-3,5C000400,-0724,0828,12169,028.7,045.4,0.255,758.5,01.16,0.508
2015-10-24 01:05:00,1767E-3,5C000400,-0724,0829,12270,028.7,045.5,0.255,758.4,01.16,0.508
2015-10-24 01:06:00,1636E-3,5C000400,-0724,0829,12214,028.7,045.5,0.255,758.4,01.16,0.508
2015-10-24 01:07:00,1712E-3,5C000400,-0724,0829,12076,028.7,045.4,0.255,758.4,01.16,0.508
2015-10-24 01:08:00,1684E-3,5C000400,-0724,0828,12259,028.8,045.4,0.255,758.4,01.16,0.508
2015-10-24 01:09:00,1707E-3,5C000400,-0724,0829,12199,028.8,045.4,0.255,758.4,01.16,0.508
2015-10-24 01:10:00,1825E-3,5C000400,-0724,0829,12148,028.7,045.5,0.255,758.4,01.16,0.508
2015-10-24 01:11:00,1712E-3,5C000400,-0724,0829,12312,028.7,045.5,0.255,758.4,01.16,0.508
2015-10-24 01:12:00,1707E-3,5C000400,-0724,0829,12079,028.8,045.5,0.255,758.4,01.16,0.508
2015-10-24 01:13:00,1831E-3,5C000400,-0724,0829,12299,028.8,045.4,0.255,758.4,01.16,0.508
2015-10-24 01:14:00,1801E-3,5C000400,-0724,0829,12280,028.8,045.5,0.255,758.5,01.16,0.508
2015-10-24 01:15:00,1748E-3,5C000400,-0724,0829,12048,028.8,045.5,0.255,758.5,01.16,0.508
2015-10-24 01:16:00,1776E-3,5C000400,-0724,0829,12269,028.8,045.4,0.255,758.4,01.16,0.508
2015-10-24 01:17:00,1727E-3,5C000400,-0724,0829,12109,028.8,045.5,0.255,758.4,01.16,0.508
2015-10-24 01:18:00,1789E-3,5C000400,-0724,0828,12246,028.8,045.5,0.255,758.4,01.16,0.508
2015-10-24 01:19:00,1778E-3,5C000400,-0724,0829,12223,028.8,045.4,0.255,758.4,01.16,0.508
2015-10-24 01:20:00,1772E-3,5C000400,-0724,0828,12205,028.8,045.4,0.255,758.4,01.16,0.508
2015-10-24 01:21:00,1640E-3,5C000400,-0724,0828,12305,028.8,045.4,0.255,758.4,01.16,0.508
2015-10-24 01:22:00,1712E-3,5C000400,-0724,0829,12047,028.8,045.4,0.255,758.4,01.16,0.508
2015-10-24 01:23:00,1742E-3,5C000400,-0724,0828,12261,028.8,045.4,0.255,758.3,01.16,0.508
2015-10-24 01:24:00,1748E-3,5C000400,-0724,0828,12213,028.8,045.4,0.255,758.3,01.16,0.508
2015-10-24 01:25:00,1815E-3,5C000400,-0724,0828,12205,028.8,045.4,0.255,758.4,01.16,0.508
2015-10-24 01:26:00,1697E-3,5C000400,-0724,0829,12291,028.8,045.4,0.255,758.4,01.16,0.508
2015-10-24 01:27:00,1660E-3,5C000400,-0724,0829,12103,028.9,045.5,0.255,758.4,01.16,0.508
2015-10-24 01:28:00,1705E-3,5C000400,-0724,0829,12256,028.8,045.5,0.255,758.4,01.16,0.508
2015-10-24 01:29:00,1586E-3,5C000400,-0724,0829,12194,028.9,045.5,0.255,758.4,01.16,0.508
2015-10-24 01:30:00,1825E-3,5C000400,-0724,0828,12184,028.9,045.4,0.255,758.4,01.16,0.508
2015-10-24 01:31:00,1726E-3,5C000400,-0724,0828,12220,028.9,045.5,0.255,758.4,01.16,0.508
2015-10-24 01:32:00,1797E-3,5C000400,-0724,0828,12266,028.9,045.5,0.255,758.4,01.16,0.508
2015-10-24 01:33:00,1801E-3,5C000400,-0724,0828,12220,028.9,045.4,0.255,758.3,01.16,0.508
2015-10-24 01:34:00,1826E-3,5C000400,-0724,0828,12245,028.9,045.5,0.254,758.3,01.16,0.508
2015-10-24 01:35:00,1689E-3,5C000400,-0724,0829,12099,028.9,045.5,0.255,758.3,01.16,0.508
2015-10-24 01:36:00,1771E-3,5C000400,-0724,0829,12175,028.9,045.5,0.255,758.3,01.16,0.508
2015-10-24 01:37:00,1673E-3,5C000400,-0724,0828,12026,028.9,045.4,0.255,758.4,01.16,0.508
2015-10-24 01:38:00,1852E-3,5C000400,-0724,0829,12281,028.9,045.4,0.255,758.3,01.16,0.508
2015-10-24 01:39:00,1707E-3,5C000400,-0724,0829,12207,028.9,045.4,0.255,758.3,01.16,0.508
2015-10-24 01:40:00,1705E-3,5C000400,-0724,0829,12074,028.9,045.5,0.255,758.3,01.16,0.508
2015-10-24 01:41:00,1762E-3,5C000400,-0724,0829,12029,028.9,045.5,0.254,758.3,01.16,0.508
2015-10-24 01:42:00,1645E-3,5C000400,-0724,0828,12185,028.9,045.5,0.255,758.3,01.16,0.508
2015-10-24 01:43:00,1747E-3,5C000400,-0724,0829,12170,028.9,045.4,0.255,758.4,01.16,0.508
2015-10-24 01:44:00,1765E-3,5C000400,-0724,0829,12202,028.9,045.4,0.255,758.4,01.16,0.508
2015-10-24 01:45:00,1726E-3,5C000400,-0724,0829,12277,028.9,045.5,0.255,758.4,01.16,0.508
2015-10-24 01:46:00,1698E-3,5C000400,-0724,0829,12128,028.9,045.5,0.255,758.4,01.16,0.508
2015-10-24 01:47:00,1741E-3,5C000400,-0724,0828,12178,028.9,045.5,0.255,758.4,01.16,0.508
2015-10-24 01:48:00,1739E-3,5C000400,-0724,0828,12265,028.9,045.5,0.254,758.3,01.16,0.508
2015-10-24 01:49:00,1726E-3,5C000400,-0724,0828,12196,029.0,045.5,0.254,758.3,01.16,0.508
2015-10-24 01:50:00,1721E-3,5C000400,-0724,0829,12171,028.9,045.5,0.255,758.3,01.16,0.508
2015-10-24 01:51:00,1706E-3,5C000400,-0724,0829,12134,028.9,045.4,0.255,758.3,01.16,0.508
2015-10-24 01:52:00,1693E-3,5C000400,-0724,0828,12189,028.9,045.5,0.255,758.3,01.16,0.508
2015-10-24 01:53:00,1784E-3,5C000400,-0724,0829,12221,028.9,045.5,0.255,758.3,01.16,0.508
2015-10-24 01:54:00,1736E-3,5C000400,-0724,0829,11993,028.9,045.5,0.255,758.3,01.16,0.508
2015-10-24 01:55:00,1750E-3,5C000400,-0724,0828,12295,029.0,045.5,0.254,758.3,01.16,0.508
2015-10-24 01:56:00,1758E-3,5C000400,-0724,0828,12193,029.0,045.5,0.255,758.3,01.16,0.508
2015-10-24 01:57:00,1769E-3,5C000400,-0724,0828,12136,029.0,045.4,0.255,758.3,01.16,0.508
2015-10-24 01:58:00,1707E-3,5C000400,-0724,0829,12125,029.0,045.4,0.255,758.3,01.16,0.508
2015-10-24 01:59:00,1781E-3,5C000400,-0724,0828,12259,029.0,045.4,0.255,758.3,01.16,0.508
2015-10-24 02:00:00,1760E-3,5C000400,-0724,0829,12132,029.0,045.4,0.255,758.3,01.16,0.508
2015-10-24 02:01:00,1753E-3,5C000400,-0724,0829,12262,029.0,045.5,0.255,758.3,01.16,0.508
2015-10-24 02:02:00,1704E-3,5C000400,-0724,0828,12108,029.0,045.5,0.255,758.3,01.16,0.508
2015-10-24 02:03:00,1776E-3,5C000400,-0724,0828,12217,029.0,045.4,0.255,758.3,01.16,0.508
2015-10-24 02:04:00,1733E-3,5C000400,-0724,0828,12010,029.0,045.4,0.255,758.3,01.16,0.508
2015-10-24 02:05:00,1701E-3,5C000400,-0724,0828,12105,029.0,045.5,0.254,758.3,01.16,0.508
2015-10-24 02:06:00,1666E-3,5C000400,-0724,0829,12264,029.0,045.5,0.254,758.3,01.16,0.508
2015-10-24 02:07:00,1733E-3,5C000400,-0724,0828,12220,029.0,045.5,0.254,758.3,01.16,0.508
2015-10-24 02:08:00,1564E-3,5C000400,-0724,0829,12285,029.0,045.5,0.255,758.3,01.16,0.508
2015-10-24 02:09:00,1804E-3,5C000400,-0724,0829,12263,029.0,045.5,0.255,758.3,01.16,0.508
2015-10-24 02:10:00,1832E-3,5C000400,-0724,0830,12179,029.0,045.4,0.255,758.3,01.16,0.508
2015-10-24 02:11:00,1702E-3,5C000400,-0724,0829,12253,029.0,045.4,0.255,758.3,01.16,0.508
2015-10-24 02:12:00,1757E-3,5C000400,-0724,0828,12164,029.1,045.5,0.254,758.3,01.16,0.508
2015-10-24 02:13:00,1747E-3,5C000400,-0724,0829,12308,029.1,045.4,0.254,758.3,01.16,0.508
2015-10-24 02:14:00,1755E-3,5C000400,-0724,0829,12310,029.0,045.5,0.254,758.3,01.16,0.508
2015-10-24 02:15:00,1854E-3,5C000400,-0724,0828,12207,029.1,045.5,0.254,758.3,01.16,0.508
2015-10-24 02:16:00,1686E-3,5C000400,-0724,0829,12178,029.1,045.5,0.255,758.3,01.16,0.508
2015-10-24 02:17:00,1739E-3,5C000400,-0724,0828,12132,029.1,045.4,0.255,758.3,01.16,0.508
2015-10-24 02:18:00,1732E-3,5C000400,-0724,0829,12194,029.1,045.4,0.255,758.3,01.16,0.508
2015-10-24 02:19:00,1779E-3,5C000400,-0724,0828,12209,029.1,045.5,0.254,758.2,01.16,0.508
2015-10-24 02:20:00,1836E-3,5C000400,-0724,0829,12286,029.1,045.5,0.254,758.2,01.16,0.508
2015-10-24 02:21:00,1758E-3,5C000400,-0724,0829,12122,029.1,045.5,0.254,758.2,01.16,0.508
2015-10-24 02:22:00,1691E-3,5C000400,-0724,0829,12261,029.1,045.5,0.254,758.2,01.16,0.508
2015-10-24 02:23:00,1771E-3,5C000400,-0724,0829,12222,029.1,045.5,0.254,758.2,01.16,0.508
2015-10-24 02:24:00,1739E-3,5C000400,-0724,0829,12229,029.1,045.5,0.254,758.2,01.16,0.508
2015-10-24 02:25:00,1814E-3,5C000400,-0724,0828,12210,029.1,045.5,0.255,758.2,01.16,0.508
2015-10-24 02:26:00,1744E-3,5C000400,-0724,0829,12202,029.1,045.5,0.254,758.2,01.16,0.508
2015-10-24 02:27:00,1649E-3,5C000400,-0724,0829,12193,029.2,045.5,0.254,758.2,01.16,0.508
2015-10-24 02:28:00,1682E-3,5C000400,-0724,0829,12124,029.2,045.5,0.254,758.2,01.16,0.508
2015-10-24 02:29:00,1631E-3,5C000400,-0724,0828,12166,029.1,045.4,0.254,758.1,01.16,0.508
2015-10-24 02:30:00,1633E-3,5C000400,-0724,0828,12085,029.1,045.5,0.254,758.3,01.16,0.508
2015-10-24 02:31:00,1603E-3,5C000400,-0724,0828,12223,029.1,045.5,0.254,758.3,01.16,0.508
2015-10-24 02:32:00,1508E-3,5C000400,-0724,0828,12151,029.1,045.5,0.254,758.2,01.16,0.508
2015-10-24 02:33:00,1687E-3,5C000400,-0724,0829,12132,029.2,045.5,0.255,758.3,01.16,0.508
2015-10-24 02:34:00,1732E-3,5C000400,-0724,0829,12103,029.2,045.4,0.254,758.3,01.16,0.508
2015-10-24 02:35:00,1722E-3,5C000400,-0724,0829,12294,029.1,045.5,0.254,758.3,01.16,0.508
2015-10-24 02:36:00,1796E-3,5C000400,-0724,0829,12221,029.2,045.5,0.254,758.3,01.16,0.508
2015-10-24 02:37:00,1661E-3,5C000400,-0724,0828,12160,029.2,045.5,0.254,758.3,01.16,0.508
2015-10-24 02:38:00,1798E-3,5C000400,-0724,0829,12290,029.1,045.5,0.254,758.3,01.16,0.508
2015-10-24 02:39:00,1594E-3,5C000400,-0724,0829,12256,029.2,045.5,0.254,758.3,01.16,0.508
2015-10-24 02:40:00,1719E-3,5C000400,-0724,0829,12187,029.2,045.5,0.254,758.3,01.16,0.508
2015-10-24 02:41:00,1666E-3,5C000400,-0724,0829,12044,029.2,045.5,0.254,758.2,01.16,0.508
2015-10-24 02:42:00,1997E-3,5C000400,-0724,0829,12068,029.2,045.5,0.254,758.3,01.16,0.508
2015-10-24 02:43:00,1716E-3,5C000400,-0724,0829,12188,029.2,045.5,0.254,758.3,01.16,0.508
2015-10-24 02:44:00,1784E-3,5C000400,-0724,0829,12140,029.2,045.5,0.254,758.2,01.16,0.508
2015-10-24 02:45:00,1712E-3,5C000400,-0724,0828,12032,029.2,045.5,0.254,758.3,01.16,0.508
2015-10-24 02:46:00,1704E-3,5C000400,-0724,0829,12201,029.2,045.5,0.254,758.2,01.16,0.508
2015-10-24 02:47:00,1799E-3,5C000400,-0724,0828,12189,029.2,045.5,0.254,758.2,01.16,0.508
2015-10-24 02:48:00,1703E-3,5C000400,-0724,0829,12197,029.2,045.5,0.254,758.2,01.16,0.508
2015-10-24 02:49:00,1873E-3,5C000400,-0724,0829,12284,029.2,045.5,0.254,758.2,01.16,0.508
2015-10-24 02:50:00,1875E-3,5C000400,-0724,0829,12113,029.2,045.5,0.254,758.2,01.16,0.508
2015-10-24 02:51:00,1679E-3,5C000400,-0724,0829,12277,029.3,045.5,0.254,758.2,01.16,0.508
2015-10-24 02:52:00,1741E-3,5C000400,-0724,0828,12195,029.3,045.5,0.254,758.2,01.16,0.508
2015-10-24 02:53:00,1631E-3,5C000400,-0724,0829,12208,029.3,045.5,0.254,758.2,01.16,0.508
2015-10-24 02:54:00,1737E-3,5C000400,-0724,0829,12160,029.3,045.5,0.254,758.2,01.16,0.508
2015-10-24 02:55:00,1749E-3,5C000400,-0724,0828,12228,029.3,045.5,0.254,758.2,01.16,0.508
2015-10-24 02:56:00,1799E-3,5C000400,-0724,0828,12184,029.3,045.5,0.254,758.1,01.16,0.508
2015-10-24 02:57:00,1741E-3,5C000400,-0724,0829,12288,029.3,045.5,0.254,758.1,01.16,0.508
2015-10-24 02:58:00,1762E-3,5C000400,-0724,0829,12269,029.3,045.5,0.254,758.1,01.16,0.508
2015-10-24 02:59:00,1812E-3,5C000400,-0724,0828,12236,029.3,045.5,0.254,758.0,01.16,0.508
2015-10-24 03:00:00,1640E-3,5C000400,-0724,0829,12224,029.3,045.5,0.254,758.1,01.16,0.508
2015-10-24 03:01:00,1741E-3,5C000400,-0724,0829,12217,029.3,045.5,0.254,758.0,01.16,0.508
2015-10-24 03:02:00,1779E-3,5C000400,-0724,0828,12125,029.3,045.5,0.254,758.1,01.16,0.508
2015-10-24 03:03:00,1702E-3,5C000400,-0724,0829,12299,029.3,045.5,0.254,758.1,01.16,0.508
2015-10-24 03:04:00,1640E-3,5C000400,-0724,0829,12185,029.3,045.5,0.254,758.0,01.16,0.508
2015-10-24 03:05:00,1611E-3,5C000400,-0724,0829,12289,029.3,045.5,0.254,758.0,01.16,0.508
2015-10-24 03:06:00,1817E-3,5C000400,-0724,0829,12277,029.3,045.5,0.254,758.1,01.16,0.508
2015-10-24 03:07:00,1801E-3,5C000400,-0724,0828,12225,029.3,045.4,0.254,758.1,01.16,0.508
2015-10-24 03:08:00,1659E-3,5C000400,-0724,0829,12260,029.3,045.5,0.254,758.1,01.16,0.508
2015-10-24 03:09:00,1794E-3,5C000400,-0724,0828,12221,029.3,045.5,0.254,758.0,01.16,0.508
2015-10-24 03:10:00,1781E-3,5C000400,-0724,0829,12228,029.3,045.5,0.254,758.0,01.16,0.508
2015-10-24 03:11:00,1766E-3,5C000400,-0724,0829,12214,029.3,045.5,0.254,758.0,01.16,0.508
2015-10-24 03:12:00,1779E-3,5C000400,-0724,0829,12272,029.4,045.5,0.254,758.0,01.16,0.508
2015-10-24 03:13:00,1780E-3,5C000400,-0724,0828,12146,029.3,045.4,0.254,758.0,01.16,0.508
2015-10-24 03:14:00,1758E-3,5C000400,-0724,0828,12073,029.3,045.5,0.254,758.0,01.16,0.508
2015-10-24 03:15:00,1815E-3,5C000400,-0724,0829,12253,029.4,045.5,0.254,758.0,01.16,0.508
2015-10-24 03:16:00,1751E-3,5C000400,-0724,0829,12247,029.4,045.5,0.254,758.0,01.16,0.508
2015-10-24 03:17:00,1788E-3,5C000400,-0724,0829,12117,029.3,045.5,0.254,758.0,01.16,0.508
2015-10-24 03:18:00,1795E-3,5C000400,-0724,0829,12234,029.3,045.5,0.254,758.0,01.16,0.508
2015-10-24 03:19:00,1694E-3,5C000400,-0724,0830,12157,029.4,045.5,0.254,758.1,01.16,0.508
2015-10-24 03:20:00,1667E-3,5C000400,-0724,0829,12318,029.4,045.5,0.254,758.0,01.16,0.508
2015-10-24 03:21:00,1824E-3,5C000400,-0724,0829,12222,029.3,045.5,0.254,758.1,01.16,0.508
2015-10-24 03:22:00,1661E-3,5C000400,-0724,0829,12152,029.3,045.4,0.253,758.1,01.16,0.508
2015-10-24 03:23:00,1793E-3,5C000400,-0724,0829,12169,029.4,045.5,0.253,758.0,01.16,0.508
2015-10-24 03:24:00,1850E-3,5C000400,-0724,0829,12122,029.4,045.5,0.253,758.0,01.16,0.508
2015-10-24 03:25:00,1678E-3,5C000400,-0724,0829,12151,029.4,045.5,0.253,758.0,01.16,0.508
2015-10-24 03:26:00,1824E-3,5C000400,-0724,0829,12189,029.4,045.5,0.253,757.9,01.16,0.508
2015-10-24 03:27:00,1851E-3,5C000400,-0724,0829,12219,029.4,045.5,0.253,757.9,01.16,0.508
2015-10-24 03:28:00,1725E-3,5C000400,-0724,0830,12253,029.4,045.5,0.253,757.9,01.16,0.508
2015-10-24 03:29:00,1796E-3,5C000400,-0724,0829,12067,029.4,045.5,0.253,757.9,01.16,0.508
2015-10-24 03:30:00,1734E-3,5C000400,-0724,0828,12208,029.4,045.5,0.254,757.9,01.16,0.508
2015-10-24 03:31:00,1686E-3,5C000400,-0724,0829,12130,029.4,045.5,0.254,757.9,01.16,0.508
2015-10-24 03:32:00,1733E-3,5C000400,-0724,0829,12150,029.4,045.5,0.254,758.0,01.16,0.508
2015-10-24 03:33:00,1710E-3,5C000400,-0724,0829,12169,029.4,045.5,0.254,758.0,01.16,0.508
2015-10-24 03:34:00,1736E-3,5C000400,-0724,0829,12285,029.4,045.5,0.254,757.9,01.16,0.508
2015-10-24 03:35:00,1922E-3,5C000400,-0724,0829,12271,029.4,045.5,0.254,757.9,01.16,0.508
2015-10-24 03:36:00,1758E-3,5C000400,-0724,0829,12269,029.4,045.5,0.254,757.8,01.16,0.508
2015-10-24 03:37:00,1729E-3,5C000400,-0724,0829,12205,029.4,045.5,0.253,757.9,01.16,0.508
2015-10-24 03:38:00,1661E-3,5C000400,-0724,0829,12289,029.4,045.5,0.254,758.1,01.16,0.508
2015-10-24 03:39:00,1723E-3,5C000400,-0724,0829,12123,029.4,045.5,0.254,758.1,01.16,0.508
2015-10-24 03:40:00,1767E-3,5C000400,-0724,0829,12298,029.4,045.5,0.253,757.9,01.16,0.508
2015-10-24 03:41:00,1714E-3,5C000400,-0724,0829,12171,029.4,045.5,0.253,757.9,01.16,0.508
2015-10-24 03:42:00,1646E-3,5C000400,-0724,0829,12102,029.4,045.5,0.253,758.0,01.16,0.508
2015-10-24 03:43:00,1731E-3,5C000400,-0724,0829,12274,029.4,045.5,0.253,757.9,01.16,0.508
2015-10-24 03:44:00,1943E-3,5C000400,-0724,0829,12183,029.5,045.5,0.253,757.9,01.16,0.508
2015-10-24 03:45:00,1721E-3,5C000400,-0724,0829,12209,029.5,045.5,0.253,757.9,01.16,0.508
2015-10-24 03:46:00,1711E-3,5C000400,-0724,0829,12124,029.5,045.5,0.253,757.9,01.16,0.508
2015-10-24 03:47:00,1888E-3,5C000400,-0724,0829,12203,029.5,045.5,0.253,758.0,01.16,0.508
2015-10-24 03:48:00,1728E-3,5C000400,-0724,0829,12149,029.5,045.5,0.253,757.9,01.16,0.508
2015-10-24 03:49:00,1746E-3,5C000400,-0724,0830,12324,029.5,045.5,0.253,757.9,01.16,0.508
2015-10-24 03:50:00,1655E-3,5C000400,-0724,0829,12183,029.4,045.5,0.253,757.9,01.16,0.508
2015-10-24 03:51:00,1717E-3,5C000400,-0724,0829,12224,029.5,045.5,0.253,757.9,01.16,0.508
2015-10-24 03:52:00,1805E-3,5C000400,-0724,0828,12244,029.4,045.5,0.253,758.0,01.16,0.508
2015-10-24 03:53:00,1762E-3,5C000400,-0724,0828,12231,029.5,045.5,0.253,757.8,01.16,0.508
2015-10-24 03:54:00,1734E-3,5C000400,-0724,0829,12094,029.5,045.5,0.253,757.9,01.16,0.508
2015-10-24 03:55:00,1741E-3,5C000400,-0724,0829,12117,029.5,045.5,0.253,757.6,01.16,0.508
2015-10-24 03:56:00,1768E-3,5C000400,-0724,0830,12328,029.5,045.5,0.254,757.6,01.16,0.508
2015-10-24 03:57:00,1832E-3,5C000400,-0724,0830,12240,029.5,045.5,0.254,757.9,01.16,0.508
2015-10-24 03:58:00,1870E-3,5C000400,-0724,0829,12308,029.5,045.5,0.254,757.8,01.16,0.508
2015-10-24 03:59:00,1811E-3,5C000400,-0724,0829,12173,029.5,045.5,0.254,757.6,01.16,0.508
2015-10-24 04:00:00,1692E-3,5C000400,-0724,0828,12241,029.5,045.5,0.254,757.7,01.16,0.508
2015-10-24 04:01:00,1804E-3,5C000400,-0724,0829,12225,029.5,045.5,0.254,757.7,01.16,0.508
2015-10-24 04:02:00,1813E-3,5C000400,-0724,0829,12143,029.5,045.4,0.254,757.7,01.16,0.508
2015-10-24 04:03:00,1813E-3,5C000400,-0724,0829,12041,029.5,045.5,0.254,757.6,01.16,0.508
2015-10-24 04:04:00,1645E-3,5C000400,-0724,0829,12088,029.5,045.5,0.254,757.7,01.16,0.508
2015-10-24 04:05:00,1757E-3,5C000400,-0724,0829,12232,029.5,045.5,0.254,757.7,01.16,0.508
2015-10-24 04:06:00,1657E-3,5C000400,-0724,0829,12208,029.5,045.5,0.254,757.8,01.16,0.508
2015-10-24 04:07:00,1703E-3,5C000400,-0724,0828,12223,029.5,045.5,0.254,757.8,01.16,0.508
2015-10-24 04:08:00,1577E-3,5C000400,-0724,0828,12348,029.6,045.5,0.254,757.8,01.16,0.508
2015-10-24 04:09:00,1787E-3,5C000400,-0724,0829,12180,029.6,045.5,0.254,757.7,01.16,0.508
2015-10-24 04:10:00,1811E-3,5C000400,-0724,0829,12133,029.6,045.5,0.254,757.7,01.16,0.508
2015-10-24 04:11:00,1670E-3,5C000400,-0724,0830,12153,029.6,045.5,0.254,757.8,01.16,0.508
2015-10-24 04:12:00,1795E-3,5C000400,-0724,0829,12218,029.6,045.5,0.253,757.8,01.16,0.508
2015-10-24 04:13:00,1732E-3,5C000400,-0724,0829,12220,029.6,045.5,0.253,757.8,01.16,0.508
2015-10-24 04:14:00,1615E-3,5C000400,-0724,0829,12166,029.6,045.5,0.253,757.8,01.16,0.508
2015-10-24 04:15:00,1829E-3,5C000400,-0724,0829,12256,029.6,045.5,0.253,757.9,01.16,0.508
2015-10-24 04:16:00,1668E-3,5C000400,-0724,0829,12159,029.6,045.5,0.253,757.8,01.16,0.508
2015-10-24 04:17:00,1682E-3,5C000400,-0724,0829,12107,029.6,045.5,0.254,757.7,01.16,0.508
2015-10-24 04:18:00,1867E-3,5C000400,-0724,0829,12266,029.6,045.5,0.254,757.8,01.16,0.508
2015-10-24 04:19:00,1634E-3,5C000400,-0724,0829,12165,029.6,045.5,0.254,757.9,01.16,0.508
2015-10-24 04:20:00,1566E-3,5C000400,-0724,0829,12107,029.6,045.5,0.254,757.8,01.16,0.508